CAPE
0 0 0 0 0 0 0 0 0 0 0 0 0 0 0 30 215 866 964 834 761 704 685 639 646 714 606 515 508 687 1058 1110 838 792 591 429 467 451 225 100 13 0 0
0 0 0 0 0 0 0 0 0 0 0 0 0 0 0 0 0 1 8 62 343 858 728 644 666 766 818 741 738 1074 1076 1123 1030 745 589 390 211 183 178 87 0 1 0
0 0 0 0 0 0 0 0 0 0 0 0 0 0 0 0 0 0 0 0 0 2 3 94 336 618 849 821 1083 891 820 851 749 639 437 315 264 139 10 0 1 1 1
0 0 0 0 0 0 0 0 0 0 0 0 0 0 0 0 0 0 0 0 0 0 0 0 0 2 70 88 410 592 612 514 420 398 381 295 210 9 0 14 4 3 3
0 0 0 0 0 0 0 0 0 0 0 0 0 0 0 0 0 0 0 0 0 0 0 0 0 0 0 0 0 20 112 271 259 194 209 213 84 18 37 0 0 1 5
0 0 0 0 0 0 0 0 0 0 0 0 0 0 0 0 0 0 0 0 0 0 0 0 0 0 0 0 0 0 0 0 1 13 134 266 65 15 0 0 0 0 0
0 0 0 0 0 0 0 0 0 0 0 0 0 0 0 0 0 0 0 0 0 0 0 0 0 0 0 0 0 0 0 0 0 0 0 0 0 0 0 0 0 0 0
0 0 0 0 0 0 1 0 0 0 0 0 0 1 0 0 0 0 0 0 0 0 0 0 0 0 0 0 0 0 0 0 0 0 0 0 0 0 0 0 0 2 5
0 0 0 0 0 0 0 0 0 0 0 0 1 0 0 0 0 0 0 0 0 0 0 0 0 0 0 0 0 0 0 0 0 0 0 0 0 0 0 0 0 0 0
0 0 0 0 0 0 0 0 0 0 0 0 0 0 0 0 0 0 0 0 0 0 0 0 0 0 0 0 0 0 0 0 0 0 0 0 0 1 0 2 0 0 0
0 0 0 0 0 0 0 0 0 0 1 0 0 0 1 1 0 0 0 0 0 1 1 0 0 0 0 1 2 2 0 0 0 0 0 0 0 0 0 0 0 0 0
0 0 0 0 0 2 0 1 1 0 0 0 0 0 1 2 2 2 3 1 0 1 1 0 1 0 0 0 0 0 1 1 0 0 0 0 0 0 1 1 0 0 0
0 0 0 0 0 0 0 0 0 0 0 0 1 0 1 1 3 2 1 4 5 0 0 0 1 0 0 0 0 0 0 0 0 0 0 0 0 1 1 0 0 0 0
0 0 0 0 0 0 1 2 0 2 2 2 3 2 1 1 2 1 1 2 0 0 0 0 0 0 0 0 0 0 0 0 0 0 0 0 1 2 2 1 1 1 1
0 0 0 0 0 0 0 0 0 1 1 0 1 2 1 2 0 0 0 0 0 0 0 0 0 1 1 0 0 1 0 0 2 1 0 0 2 3 2 1 1 1 0
0 0 0 0 0 0 1 1 1 2 1 1 0 0 0 0 0 0 0 0 0 0 0 0 1 0 0 1 2 0 1 0 0 0 0 1 1 2 2 2 0 0 3
0 0 0 0 0 1 0 1 2 0 1 1 1 1 1 2 0 0 0 0 0 0 1 0 1 0 0 0 1 3 2 0 0 0 0 1 2 2 2 3 1 1 2
0 0 0 1 0 2 1 1 1 3 3 1 1 1 1 0 0 1 2 1 0 1 0 0 1 0 0 0 1 1 1 0 0 0 0 1 2 2 3 2 1 1 1
0 2 1 0 0 1 0 0 2 3 2 2 0 0 0 3 3 0 0 0 0 1 1 0 0 0 1 1 0 1 2 0 0 1 1 2 3 1 2 1 1 1 0
3 4 1 1 1 1 1 1 2 1 2 1 1 0 1 1 1 1 0 0 0 1 1 0 0 0 0 0 0 0 0 0 0 2 2 2 2 1 2 1 1 1 0
5 5 2 2 4 6 2 2 2 1 2 1 1 2 1 1 1 2 1 2 2 0 0 0 0 0 0 0 0 0 0 0 1 2 2 2 1 1 1 0 0 0 1
6 3 2 2 7 6 3 1 1 1 1 1 2 1 0 2 3 2 3 2 0 0 0 0 0 0 0 0 0 0 0 0 1 2 3 2 1 1 0 0 1 0 0
2 0 1 1 5 4 4 1 1 1 1 1 1 1 2 2 2 1 1 0 0 0 0 1 0 0 0 0 0 0 0 0 1 2 2 2 0 0 0 1 1 0 0
3 4 3 3 5 2 2 1 0 1 0 1 1 1 1 2 1 1 1 0 1 1 1 1 0 0 0 0 0 0 1 0 0 1 1 1 0 0 0 0 0 0 0
6 4 4 4 4 2 1 1 1 1 1 0 0 0 0 0 0 1 2 0 0 0 0 0 1 0 0 0 0 0 0 0 0 0 0 1 0 0 0 0 0 0 0
2 2 1 2 3 1 0 1 1 1 1 1 0 0 0 0 0 0 0 0 0 0 0 0 0 0 0 0 0 0 0 0 0 0 0 0 0 0 0 1 0 0 0
CIN
0 0 0 0 0 0 0 0 0 0 0 0 0 0 0 -132 -245 -14 -6 -13 -16 -47 -61 -44 -63 -67 -97 -107 -87 -45 -16 -2 -2 -9 -47 -51 -32 -46 -97 -225 -354 0 0
0 0 0 0 0 0 0 0 0 0 0 0 0 0 0 0 0 0 -17 -304 -93 -15 -12 -15 -27 -29 -39 -36 -30 -3 -2 0 0 -1 -20 -58 -83 -67 -78 -191 -6 0 0
0 0 0 0 0 0 0 0 0 0 0 0 0 0 0 0 0 0 0 0 0 0 0 -186 -83 -19 -1 -2 -2 -7 -10 0 -2 -1 -17 -56 -64 -127 -292 0 0 0 0
0 0 0 0 0 0 0 0 0 0 0 0 0 0 0 0 0 0 0 0 0 0 0 0 0 -159 -250 -167 -78 -5 -9 -5 -7 -7 -1 -8 -62 -141 0 -188 -130 0 0
0 0 0 0 0 0 0 0 0 0 0 0 0 0 0 0 0 0 0 0 0 0 0 0 0 0 0 0 0 -224 -142 -18 -16 -20 -24 -28 -97 -125 -171 -29 0 0 0
0 -1 0 0 0 0 0 0 0 0 0 0 0 0 0 0 0 0 0 0 0 0 0 0 0 0 0 0 0 0 0 0 -103 -83 -2 -2 -53 -120 0 0 0 0 0
0 0 0 -1 0 0 0 0 0 0 0 0 0 0 0 0 0 0 0 0 0 0 0 0 0 0 0 0 0 0 0 0 0 0 0 0 0 0 0 0 0 0 0
-4 0 0 0 0 0 -1 0 0 0 0 0 0 -1 0 0 0 0 0 0 0 0 0 0 0 0 0 0 0 0 0 0 0 0 0 0 0 0 0 0 0 0 0
0 0 0 0 0 0 0 0 -1 0 0 0 -1 0 0 0 0 0 0 0 0 0 0 0 0 0 0 0 0 0 0 0 0 0 0 0 0 0 0 0 0 0 0
0 0 0 0 0 0 0 0 0 0 0 0 0 0 0 0 0 0 0 0 0 0 0 0 0 0 0 0 0 0 0 0 0 0 0 0 0 0 0 0 0 0 0
0 0 0 0 0 0 0 0 0 0 -1 0 0 0 -1 -1 0 0 0 0 0 0 0 0 0 0 0 0 0 0 0 0 0 0 0 0 0 0 0 0 0 0 0
0 0 0 0 0 -1 0 -3 0 -1 0 0 0 -1 -1 0 0 -1 -2 -3 0 -2 -1 -2 -1 -1 0 0 0 0 0 0 0 0 0 0 0 0 0 0 0 0 0
0 0 0 0 -1 0 0 -4 0 -1 -1 -1 -1 0 -1 -2 -2 -1 -2 -2 -2 -2 -3 -2 -3 -3 -5 0 0 0 0 0 0 0 0 0 0 0 0 0 0 0 0
0 0 0 -2 0 -1 -1 -1 -1 0 0 0 0 0 -1 -1 -2 -3 -1 -1 0 0 0 -1 0 0 0 0 0 0 0 0 0 0 0 0 0 0 0 0 0 0 0
0 0 -1 0 -1 0 -1 -2 -3 -4 -3 -1 -2 -1 -2 0 0 0 0 0 0 0 0 0 0 0 0 -1 -1 0 -1 0 0 0 0 0 0 0 0 0 0 0 0
-1 0 0 0 0 -1 -1 -1 -2 -4 -3 -3 -3 -5 0 0 0 0 0 0 0 0 0 0 0 0 0 0 0 -1 0 0 0 0 0 0 0 0 0 0 0 0 0
-1 0 0 -1 -1 -1 -1 0 0 -1 -3 -5 -5 -7 -9 -11 0 0 -15 0 0 0 0 0 0 0 0 0 0 -1 0 0 0 0 0 0 0 0 0 0 0 0 0
0 0 -1 -2 -1 -2 0 0 0 0 0 0 -4 -3 -7 0 0 -1 -6 -4 0 0 0 0 0 0 0 0 -1 -2 0 0 0 0 0 0 0 0 0 0 0 0 0
0 -1 -2 -1 -1 -2 -2 -1 -1 -1 0 -1 -4 0 0 -1 -1 -1 -10 -2 -1 0 -1 -1 0 0 -1 -2 0 -6 -3 0 0 0 0 0 0 0 0 0 0 0 0
-3 -3 -4 -4 -4 -3 -2 -1 -1 -1 -1 0 0 0 -1 0 0 -3 -2 -1 0 0 0 0 0 0 0 0 0 0 0 0 0 0 0 0 0 0 0 0 0 0 0
-2 -4 -5 -2 -2 -1 -2 -1 -1 0 0 0 0 -1 -2 -1 0 0 -1 0 -1 -1 0 0 0 0 0 0 0 0 0 0 0 0 0 0 0 0 0 0 0 0 0
-1 -5 -2 -1 -1 -1 -1 -1 -1 0 -1 0 0 -1 -4 -1 0 0 0 0 0 0 0 0 0 0 0 0 0 0 0 0 0 0 0 0 0 0 0 0 0 0 0
-6 -4 -2 -2 -1 -3 0 -1 0 0 -1 -2 -1 -1 -1 -1 -1 -1 -1 0 0 0 0 0 0 0 0 0 0 0 0 0 0 0 0 0 0 0 0 0 0 0 0
-10 -1 -1 -1 -1 -3 0 -1 0 -1 0 0 -1 -1 -2 -1 -1 -1 -1 0 0 0 0 0 0 0 0 0 0 0 0 0 0 0 0 0 0 0 0 0 0 0 0
-1 -1 -1 0 -1 -1 -1 0 0 -1 -1 0 -1 0 0 0 0 -1 0 0 0 0 0 0 0 0 0 0 0 0 0 0 0 0 0 0 0 0 0 0 0 0 0
-2 -2 -3 -1 -1 -1 -1 -1 -1 0 0 -1 0 0 0 0 0 0 0 0 0 0 0 0 0 0 0 0 0 0 0 0 0 0 0 0 0 0 0 0 0 0 0
Wind_Speed
25 25 25 25 25 25 27 27 26 25 26 26 29 30 29 28 32 34 33 33 34 33 33 34 34 32 31 31 30 31 31 31 36 34 31 26 27 28 29 27 27 26 24
27 27 27 27 28 29 32 34 31 27 30 27 29 32 32 31 31 31 31 31 34 36 35 35 34 33 33 33 33 32 33 31 33 36 32 32 34 31 28 26 22 22 25
29 29 29 29 30 30 32 34 35 38 36 33 29 32 34 32 30 30 31 33 32 35 35 37 35 36 37 36 34 36 34 33 34 33 35 34 30 28 28 26 25 28 28
31 31 31 31 31 30 31 32 33 33 35 38 38 38 36 36 34 36 35 38 37 37 36 36 39 38 38 37 38 36 36 38 37 37 38 36 33 29 28 31 32 30 31
31 30 31 32 33 32 34 33 33 34 35 35 33 34 35 36 36 36 36 37 37 41 41 41 38 37 39 39 39 40 40 41 41 40 41 33 32 31 32 33 30 30 29
32 32 30 31 32 32 34 35 36 36 36 35 36 35 36 35 36 38 40 42 41 42 42 40 41 39 38 41 39 38 37 40 39 39 42 35 36 34 32 32 30 31 34
34 33 34 34 33 33 32 34 35 37 37 37 36 37 36 36 37 38 39 42 43 43 43 42 41 39 39 40 39 39 35 35 35 38 42 38 37 32 32 31 31 31 33
34 35 36 37 37 37 35 34 36 35 36 36 37 37 39 40 40 42 43 42 42 42 42 43 43 43 41 38 38 37 37 35 33 32 33 36 35 36 36 33 33 29 29
37 36 37 38 38 38 39 39 38 39 39 38 38 39 40 41 39 41 43 44 45 45 43 42 43 43 40 39 40 40 39 36 33 34 34 35 37 34 32 30 34 32 33
38 38 37 37 38 38 39 39 39 40 41 41 42 41 42 42 40 41 41 41 45 44 43 43 42 39 37 39 40 40 41 38 38 38 37 34 34 34 33 34 33 35 34
34 36 36 37 38 37 38 39 41 41 40 40 42 41 41 41 42 42 42 42 44 44 43 43 43 42 44 44 44 42 41 41 42 40 38 38 40 39 34 31 31 31 31
33 35 39 39 39 38 38 41 41 42 42 42 43 42 39 39 40 41 42 43 42 44 44 44 43 42 44 45 44 42 43 43 40 38 39 38 38 36 32 30 27 26 26
30 34 40 40 38 39 43 42 42 41 41 42 43 44 43 41 41 41 41 41 42 43 44 45 46 46 43 42 43 42 37 37 38 37 36 35 32 30 26 24 22 22 25
30 33 40 40 42 42 41 41 42 42 42 43 43 45 45 45 44 42 41 40 41 42 42 43 46 48 46 44 41 36 35 33 33 34 32 27 23 22 22 23 24 21 22
31 31 37 41 42 43 42 42 42 40 41 45 45 45 49 49 46 46 45 44 42 41 43 41 41 41 43 40 37 37 33 31 30 29 28 25 24 24 24 24 22 23 23
32 31 35 42 44 42 44 45 38 36 38 37 39 42 46 46 50 49 49 48 48 46 41 41 41 41 40 40 38 37 34 34 30 28 27 25 24 24 23 22 22 22 20
32 32 36 42 42 44 44 45 47 44 40 37 40 42 44 49 50 49 48 47 46 43 41 42 42 40 40 38 38 38 37 34 29 27 27 25 23 23 22 22 21 20 18
31 32 36 40 44 43 44 45 45 47 49 47 43 43 43 44 43 44 43 43 39 33 34 38 38 38 38 38 38 37 35 30 27 25 23 22 20 20 19 18 16 15 12
32 32 37 42 43 42 44 44 44 45 43 44 46 42 39 38 40 39 39 36 38 37 35 33 32 31 32 30 32 33 31 26 22 19 17 17 15 14 14 11 10 9 7
30 32 39 41 43 41 44 44 45 44 43 41 44 43 40 40 40 39 36 33 33 36 35 34 33 30 28 27 27 28 21 16 15 14 12 11 9 8 9 8 7 4 4
30 34 39 41 41 41 44 44 45 43 40 39 40 39 42 42 41 38 38 37 36 35 34 31 29 27 26 25 24 22 15 13 11 8 7 7 6 6 5 4 3 3 2
29 32 38 42 40 42 43 44 44 41 37 38 43 42 42 39 37 38 37 36 34 35 33 32 30 26 26 24 23 17 14 11 9 7 4 2 2 3 4 6 6 6 6
29 32 36 41 38 44 43 44 43 37 34 42 42 40 41 39 38 37 35 37 36 37 32 28 23 22 21 20 20 15 13 11 9 6 3 2 3 4 5 8 9 9 6
29 33 38 39 37 44 42 44 43 36 35 42 42 41 41 41 41 38 36 35 37 35 32 27 20 18 17 17 14 13 8 6 6 5 5 6 5 7 10 11 11 10 10
27 35 40 40 40 42 42 43 37 35 42 42 40 35 37 39 38 33 35 33 35 34 32 26 19 12 8 10 7 8 3 5 6 4 4 7 8 11 12 12 12 10 12
29 37 41 40 41 42 42 41 37 39 39 41 29 32 36 38 35 33 32 23 26 26 26 19 12 18 22 21 15 12 5 5 6 7 8 10 11 11 13 13 14 12 14
Wind_Direction
317 312 310 307 304 298 290 294 290 302 290 292 294 295 293 288 283 278 276 274 273 274 274 275 275 277 278 281 283 282 282 283 287 292 297 304 308 307 306 311 313 317 324
317 316 312 310 307 304 296 293 309 295 300 292 295 296 297 294 290 284 285 286 282 276 276 276 276 279 279 280 282 282 283 284 287 290 293 299 304 305 307 311 317 322 325
316 312 312 312 309 307 305 301 297 289 303 297 297 293 293 293 293 293 290 290 286 287 284 284 286 284 282 283 283 283 285 286 288 290 292 298 299 303 305 309 312 318 323
314 313 308 307 308 307 307 306 307 307 301 297 289 289 290 293 293 293 292 292 288 290 290 288 287 288 290 290 288 285 286 288 288 290 293 294 295 298 301 301 304 313 316
319 318 314 309 306 304 305 305 306 304 304 305 304 297 290 293 291 293 295 291 295 289 288 288 288 292 290 291 289 290 292 291 289 290 288 290 293 295 297 303 304 311 314
320 315 317 313 312 308 305 303 303 303 303 304 301 300 299 298 296 293 290 291 292 289 288 289 292 291 290 293 294 290 293 293 291 297 293 294 296 298 299 301 304 307 308
326 318 317 315 313 308 310 308 306 303 301 299 299 300 298 299 299 297 298 292 289 289 291 290 290 292 293 293 292 296 297 296 296 296 294 297 301 305 303 300 300 303 304
330 323 325 317 310 309 309 310 307 307 304 303 301 300 298 296 297 299 295 292 290 291 291 289 290 291 291 293 294 298 298 298 299 299 299 300 302 303 304 303 302 302 305
333 329 323 322 320 314 311 306 306 304 303 303 302 301 298 297 301 298 296 292 290 289 290 291 292 290 290 291 293 294 296 296 300 302 302 302 302 302 302 303 298 296 296
337 332 329 325 322 319 318 316 314 308 304 302 301 303 301 300 302 300 298 296 291 290 289 290 290 292 294 292 291 292 292 292 297 300 300 301 304 301 303 298 292 291 293
351 342 336 332 327 326 321 318 315 314 312 310 305 304 303 301 299 298 297 295 290 290 291 289 286 292 290 291 292 290 288 293 294 297 298 300 300 299 302 297 295 294 292
352 345 333 330 328 328 325 322 317 313 310 309 308 309 312 310 306 303 297 295 295 292 292 290 292 293 292 291 289 289 291 291 292 295 297 298 298 299 300 301 302 300 298
352 344 332 326 330 327 321 321 319 317 314 312 311 309 310 312 311 309 306 303 297 294 293 291 291 291 291 291 290 290 291 292 292 292 294 298 299 301 304 307 309 308 305
352 345 330 324 322 322 322 322 318 317 315 314 313 310 310 310 310 308 306 304 302 300 298 296 292 290 290 291 292 292 290 291 290 291 295 300 305 306 306 305 304 306 304
352 348 336 325 320 316 319 320 320 322 321 316 316 314 309 308 308 306 303 303 302 301 299 298 296 295 292 292 292 290 288 287 286 287 290 294 298 299 301 302 302 301 301
351 348 340 326 320 320 317 315 328 329 329 329 326 320 315 311 303 301 299 296 294 295 298 296 295 294 292 292 290 289 285 281 282 282 284 290 294 297 299 299 300 300 300
349 347 341 327 322 317 316 315 309 320 329 333 328 325 320 308 302 299 300 298 296 296 295 293 293 293 292 290 289 287 283 280 276 275 279 284 291 295 297 298 298 299 297
350 347 342 332 323 320 319 316 316 316 319 325 330 327 322 318 317 313 310 307 307 307 302 298 295 294 291 289 288 286 283 278 273 272 275 282 289 294 298 299 301 301 296
350 348 341 330 326 324 319 317 319 324 331 333 331 331 331 329 324 321 318 315 309 305 305 303 302 300 298 295 292 288 282 276 273 269 274 283 291 296 301 307 308 302 302
352 348 339 333 329 331 322 318 318 327 334 338 333 331 331 329 326 325 325 323 318 311 308 305 304 304 303 299 294 289 284 275 269 266 272 282 292 302 309 316 311 307 309
352 348 339 331 334 335 323 317 318 332 339 340 337 334 324 323 323 327 324 321 316 314 312 311 311 309 306 302 296 289 272 269 262 255 265 279 295 318 336 2 41 15 49
352 349 342 328 338 334 323 317 325 337 344 342 328 319 313 331 335 332 329 325 324 319 318 313 310 308 307 301 295 283 267 257 246 243 244 260 336 16 53 80 74 85 95
352 350 344 336 343 329 318 317 332 345 348 337 307 303 310 309 334 334 335 326 325 319 326 323 320 317 312 305 288 273 263 250 234 206 182 131 96 80 79 91 97 103 103
352 348 340 339 345 320 315 318 335 348 349 312 312 313 316 317 321 332 336 335 329 328 329 328 328 324 318 305 282 266 261 238 213 181 135 113 100 93 96 96 102 106 107
353 345 336 337 341 316 315 330 348 351 334 317 338 347 343 333 332 345 341 341 335 323 322 334 343 356 14 296 279 256 217 194 183 143 116 101 98 103 101 96 104 108 110
352 340 331 337 337 318 320 337 349 347 312 321 358 355 345 333 337 346 345 292 301 307 317 288 189 180 167 198 221 217 192 134 122 109 98 100 102 99 98 103 106 110 111